Погода в Кизляре

Погода в Кизляре : погода сейчас, прогноз погоды и архив. Всё, что Вы хотите узнать о погоде в Кизляре!

Поиск расширенной информации на нашем сайте:

Другие новости

Новости СМИ2

Главная страница сайта

Новости сайта

02.10.2013

Напоминаем, что на нашем новом сайте вы можете получить высокодетализированные прогнозы погоды по пунктам России, СНГ и мира (включающие важные для авиации метеовеличины, такие как направление и скорость ветра, видимость, явления погоды, количество и форма облачности, нижняя и верхняя граница облачности), а также ознакомиться с разнообразными материалами по авиационной метеорологии и подборкой полезных ссылок на эту тему.

Сайт Метеоцентр.Азия посвящён разработке технологий оптимизации авиаметеорологического обслуживания, включая проектирование и перспективное создание нескольких автоматизированных авиаметеорологических систем:
- система выпуска высокодетальных прогностических карт явлений погоды для нижнего воздушного пространства по России и ближнему зарубежью;
- система верификации прогнозов TAF (выпускаемых синоптиками официальных АМСГ РФ и ближнего зарубежья) и AUTOTAF (выпускаемых сайтом Метеоцентр.Азия) - выявление ошибок, онлайн-сопоставление с фактической погодой METAR, автоматическое внесение коррективов в прогнозы при резком отклонении фактической погоды от прогноза, подсчёт оправдываемости прогнозов по элементам и в целом;
- система обработки, анализа и отображения авиаметеорологической информации для применения провайдерами метеорологической информации.

Рекомендуем: Школа трейдинга на nyse bcs.ru/broker/global/bcs-laser.asp.

Погода в Кизляре - сегодня

Время (UTC), дата Ветер
(°,м/с) 
Видим.   Явления Облачность Т
(°С)
Тd
(°С)
f(%) Тe
(°С)
Pmin
(гПа)
dP
(гПа)
Po
(мм)
O2
(г/м3)
Тmin Tmax R s Состояние
почвы
03 20.04.17 270 (З) 10 км    8/8 600 м средняя 
[Sc|Ac trans]
+8.8 +3.7 70 +8  1021.9  767  299  +8         
06 20.04.17 270 (З) 10 км    8/8 600 м средняя 
[Sc|Ac trans]
+10.4 +2.8 59 +9  1022.5  0.6  767  297           
09 20.04.17 270 (З) 10 км    4/4 600 м средняя 
[Cu hum|Ac trans]
+14.3 +3.6 49 +14  1020.9  -1.6  766  293           
12 20.04.17 320 (СЗ) 10 км    3/0 средняя 
[Ac trans]
+16.8 +3.8 42 +18  1019.5  -1.3  765  290           
15 20.04.17 080 (В) 10 км    4/0 верхняя 
[Ci fib]
+15.1 +4 47 +16  1018.9  -0.6  765  291    +17.4       
18 20.04.17 090 (В) 10 км    ясно 
+7.1 +4.1 81 +6  1019.9  765  300           
21 20.04.17 080 (В) 10 км    ясно 
+6.4 +5 91 +5  1019.3  -0.6  765  300           
00 21.04.17 080 (В) 4000 м  дымка  ясно 
+5.4 +4.3 93 +4  1017.1  -2.2  763  301           
03 21.04.17 090 (В) 10 км    3/0 средняя 
[Ac trans]
+7.8 +4.1 77 +6  1016.3  -0.8  763  298  +5.4        сухая 
06 21.04.17 100 (В) 11-14{16}  10 км    6/0 средняя, верхняя 
[Ac trans|Ci fib]
+13.4 +4.8 56 +12  1015.1  -1.1  762  292           
09 21.04.17 100 (В) 14-18{19}  10 км    8/0 средняя 
[Ac cuf]
+14 +5.4 56 +12  1012.7  -2.4  760  290           
12 21.04.17 110 (В) 13-17{19}  10 км    8/0 средняя, верхняя 
[Ac trans|Ci fib]
+13.2 +6.8 65 +11  1011.4  -1.4  759  291           
15 21.04.17 100 (В) 9-13{17}  10 км    9/9 600 м средняя 
[Sc|Ac trans]
+10.8 +7.7 81 +9  1010.1  -1.2  758  293    +14.9       
18 21.04.17 100 (В) 7{13}  10 км    10/10 600 м 
[Sc]
+9.8 +8.9 94 +8  1009.7  -0.5  758  293           
21 21.04.17 240 (ЮЗ) 4000 м  дымка  10/10 600 м 
[Sc]
+9.7 +8.9 95 +11  1009.7  758  293           
00 22.04.17 270 (З) 6{12}  10 км    10/10 600 м 
[Sc]
+9.9 +7.8 87 +8  1011.3  1.6  759  294           
03 22.04.17 280 (З) 6-11{19}  10 км    10/10 600 м 
[Sc]
+7.2 +3 75 +5  1015.2  3.9  762  299  +7.2        сухая 
06 22.04.17 310 (СЗ) 3{11}  10 км    10/10 600 м 
[Sc]
+8.6 +3.5 70 +8  1015.5  0.3  762  297  +7         
09 22.04.17 300 (СЗ) 10 км    10/10 600 м 
[Sc]
+9.6 +2.3 60 +10  1016.9  1.5  763  297           
12 22.04.17 190 (Ю) 10 км    6/6 600 м средняя 
[Cu Sc|Ac trans]
+11.7 +4.2 60 +11  1017.2  0.3  763  294           
15 22.04.17 190 (Ю) 10 км    6/6 600 м средняя 
[Sc|Ac trans]
+11.7 +3.8 58 +12  1019.4  2.2  765  295    +13       
18 22.04.17 360 (С) 10 км    4/4 600 м средняя 
[Sc|Ac trans]
+9.6 +1.1 55 +11  1021.7  2.3  767  298           
21 22.04.17 090 (В) 10 км    4/4 600 м средняя 
[Sc|Ac trans]
+5 +0.4 72 +5  1021  -0.8  766  303           
00 23.04.17 080 (В) 10 км    4/4 600 м средняя 
[Sc|Ac trans]
+4.5 +1.1 79 +3  1019.5  -1.5  765  303           
03 23.04.17 070 (В) 10 км    6/6 600 м средняя 
[Sc|Ac trans]
+7.2 +3 75 +5  1017.1  -2.4  763  299  +3.5        сухая 
Время (UTC), дата Ветер
(°,м/с) 
Видим.   Явления Облачность Т
(°С)
Тd
(°С)
f(%) Тe
(°С)
Pmin
(гПа)
dP
(гПа)
Po
(мм)
O2
(г/м3)
Тmin Tmax R s Состояние
почвы

Для получения пояснительной информации подведите курсор к названию столбца.

ПОГОДА в Кизляре - архив

Всё, что Вы хотите узнать о погоде в Кизляре - удобно и подробно!

Выберите нужную дату (начиная с 1 января 2015* года) и нажмите кнопку "Найти".
Будут отображены архивные сводки погоды по пункту Кизляр, начиная с указанной даты.


Отображать данные в формате CSV (для использования в таблицах Excel)


Внимание! Наш архив погоды предназначен исключительно для личного некоммерческого использования в познавательных целях. Если Вам необходимы официальные справки о состоянии погоды (для производственных, юридических, коммерческих и т.п. целей), обращайтесь в органы Росгидромета.

*Примечание: данная дата относится к архиву по метеостанциям СССР (Россия, СНГ, Балтия).
Архив по метеостанциям Зарубежной Европы и Азии (кроме Китая) хранится 10 дней, по другим регионам земного шара (Китай, Африка, Америка, Австралия, Океания) - 1 день.

Кизляр - район местоположения метеостанции


Название, широта, долгота, высота метеостанции:
Кизляр 43.8°ш. 46.7°д. -5 м над ур. моря [Российская Федерация]

Дополнительная информация

В oтличие oт бoльшинства пoгoдных сайтoв мы публикуем пoдрoбную метеoинфoрмацию в детальнoм прoфессиoнальнoм фoрмате.

Характеристики температуры и влажнoсти вoздуха измеряются на высoте 2 м в тени вдали oт зданий и деревьев.
Скoрoсть ветра измеряется на высoте 10 м (на урoвне рoста челoвека скoрoсть ветра ниже в 1.5-2 раза). Если метеoстанция нахoдится в гoрoде или в лесу, тo скoрoсть ветра занижена на 2-4 м/с пo сравнению с oткрытым местoм. Скoрoсть ветра над акватoриями крупных рек и oзёр, а также на вершинах хoлмoв на 2-5 м/с выше, чем в oбычных услoвиях.
Атмoсфернoе давление в разных тoчках местнoсти мoжет значительнo oтличаться oт давления на метеoстанции, в зависимoсти oт услoвий рельефа (при пoдъёме на 10 м давление пoнижается примернo на 1 мм рт.ст.).